Bainbridge, GA

8:03 PM EDT on June 23, 2017 (GMT -0400)
Decatur County Industrial

Weather History for KBGE - January, 2014

Change the Weather History Date:

Sunday, January 19, 2014

  Actual Average (KTLH) Record (KTLH)
Temperature  
Mean Temperature 50 °F -  
Max Temperature 64 °F 64 °F 79 °F (2001)
Min Temperature 37 °F 40 °F 15 °F (1976)
Degree Days  
Heating Degree Days 14    
Moisture  
Dew Point 40 °F    
Average Humidity 71    
Maximum Humidity 94    
Minimum Humidity 34    
Precipitation  
Precipitation 0.00 in - - ()
Sea Level Pressure  
Sea Level Pressure 30.12 in    
Wind  
Wind Speed 5 mph (West)    
Max Wind Speed 14 mph    
Max Gust Speed 18 mph    
Visibility 10 miles    
Events Rain , Thunderstorm    
Averages and records for this station are not official NWS values.
T = Trace of Precipitation, MM = Missing Value Source: NWS Daily Summary

Daily Weather History Graph

Daily Weather History Graph

Search for Another Location

Airport or City:

Trip Planner

Search our weather history database for the weather conditions in past years. The results will help you decide how hot, cold, wet, or windy it might be!

Date:

Astronomy

Jan. 19, 2014 Rise Set
Actual Time 7:36 AM EST 6:02 PM EST
Civil Twilight 7:10 AM EST 6:28 PM EST
Nautical Twilight 6:40 AM EST 6:58 PM EST
Astronomical Twilight 6:11 AM EST 7:27 PM EST
Moon 9:22 PM EST (1/19) 9:21 AM EST (1/19)
Length of Visible Light 11h 18m
Length of Day
10h 26m
Waning Gibbous, 89% of the Moon is Illuminated
Jan 19
Waning Gibbous
Jan 24
Last Quarter
Jan 30
New
Feb 6
First Quarter
Feb 14
Full

Hourly Weather History & Observations

Time (EST) Temp. Windchill Dew Point Humidity Pressure Visibility Wind Dir Wind Speed Gust Speed Precip Events Conditions
12:15 AM 39.2 °F 37.0 °F 30.2 °F 70% 30.13 in 10.0 mi SSW 3.5 mph - N/A   Clear
12:35 AM 39.2 °F 35.9 °F 32.0 °F 75% 30.13 in 10.0 mi SSW 4.6 mph - N/A   Clear
12:55 AM 39.2 °F 35.9 °F 32.0 °F 75% 30.12 in 10.0 mi South 4.6 mph - N/A   Clear
1:15 AM 37.4 °F 33.8 °F 32.0 °F 81% 30.11 in 10.0 mi South 4.6 mph - N/A   Clear
1:35 AM 39.2 °F 37.0 °F 32.0 °F 75% 30.11 in 10.0 mi SSW 3.5 mph - N/A   Clear
1:55 AM 41.0 °F 38.0 °F 33.8 °F 76% 30.11 in 10.0 mi SSW 4.6 mph - N/A   Clear
2:15 AM 41.0 °F 36.4 °F 33.8 °F 76% 30.11 in 10.0 mi South 6.9 mph - N/A   Clear
2:35 AM 41.0 °F 37.1 °F 33.8 °F 76% 30.10 in 10.0 mi South 5.8 mph - N/A   Clear
2:55 AM 41.0 °F 39.0 °F 33.8 °F 76% 30.11 in 10.0 mi SSW 3.5 mph - N/A   Clear
3:15 AM 41.0 °F 39.0 °F 35.6 °F 81% 30.11 in 10.0 mi SW 3.5 mph - N/A   Clear
3:35 AM 41.0 °F - 35.6 °F 81% 30.11 in 10.0 mi Calm Calm - N/A   Clear
3:55 AM 42.8 °F - 35.6 °F 76% 30.12 in 10.0 mi Calm Calm - N/A   Scattered Clouds
4:15 AM 42.8 °F - 37.4 °F 81% 30.11 in 10.0 mi Calm Calm - N/A   Clear
4:35 AM 42.8 °F 40.1 °F 37.4 °F 81% 30.12 in 10.0 mi NNW 4.6 mph - N/A   Scattered Clouds
4:55 AM 42.8 °F 41.1 °F 37.4 °F 81% 30.12 in 10.0 mi NNW 3.5 mph - N/A   Scattered Clouds
5:15 AM 42.8 °F - 39.2 °F 87% 30.11 in 10.0 mi Calm Calm - N/A   Scattered Clouds
5:35 AM 42.8 °F 41.1 °F 39.2 °F 87% 30.11 in 10.0 mi South 3.5 mph - N/A   Scattered Clouds
5:55 AM 41.0 °F - 37.4 °F 87% 30.09 in 10.0 mi Calm Calm - N/A   Clear
6:15 AM 42.8 °F - 39.2 °F 87% 30.09 in 10.0 mi Calm Calm - N/A Thunderstorm Clear
6:35 AM 41.0 °F - 37.4 °F 87% 30.09 in 10.0 mi Calm Calm - N/A   Scattered Clouds
6:55 AM 44.6 °F 42.2 °F 41.0 °F 87% 30.11 in 10.0 mi WNW 4.6 mph - N/A Rain Light Rain
7:15 AM 46.4 °F 40.7 °F 44.6 °F 93% 30.13 in 5.0 mi WSW 12.7 mph - N/A Rain , Thunderstorm Rain
7:35 AM 46.4 °F 42.9 °F 44.6 °F 93% 30.14 in 10.0 mi West 6.9 mph - N/A Rain , Thunderstorm Light Thunderstorms and Rain
7:55 AM 46.4 °F 42.9 °F 44.6 °F 93% 30.12 in 10.0 mi SSW 6.9 mph - N/A Rain , Thunderstorm Light Thunderstorms and Rain
8:15 AM 46.4 °F 42.9 °F 44.6 °F 93% 30.11 in 10.0 mi SSW 6.9 mph - N/A   Mostly Cloudy
8:35 AM 48.2 °F - 46.4 °F 93% 30.13 in 10.0 mi SW 8.1 mph - N/A Thunderstorm Thunderstorm
8:55 AM 50.0 °F - 48.2 °F 94% 30.12 in 10.0 mi SW 4.6 mph - N/A   Mostly Cloudy
9:15 AM 51.8 °F - 50.0 °F 94% 30.14 in 10.0 mi SW 5.8 mph - N/A   Scattered Clouds
9:35 AM 53.6 °F - 50.0 °F 88% 30.15 in 10.0 mi WSW 9.2 mph - N/A   Clear
9:55 AM 53.6 °F - 50.0 °F 88% 30.15 in 10.0 mi WSW 9.2 mph - N/A   Clear
10:15 AM 55.4 °F - 50.0 °F 82% 30.16 in 10.0 mi West 13.8 mph - N/A   Clear
10:35 AM 55.4 °F - 50.0 °F 82% 30.17 in 10.0 mi West 10.4 mph 13.8 mph N/A   Scattered Clouds
10:55 AM 59.0 °F - 50.0 °F 72% 30.17 in 10.0 mi WNW 10.4 mph - N/A   Scattered Clouds
11:15 AM 59.0 °F - 50.0 °F 72% 30.17 in 10.0 mi NW 9.2 mph - N/A   Scattered Clouds
11:35 AM 59.0 °F - 46.4 °F 63% 30.17 in 10.0 mi WNW 9.2 mph - N/A   Scattered Clouds
11:55 AM 59.0 °F - 46.4 °F 63% 30.17 in 10.0 mi West 8.1 mph - N/A   Clear
12:15 PM 60.8 °F - 46.4 °F 59% 30.16 in 10.0 mi West 10.4 mph - N/A   Clear
12:35 PM 60.8 °F - 46.4 °F 59% 30.15 in 10.0 mi West 11.5 mph - N/A   Clear
12:55 PM 62.6 °F - 44.6 °F 52% 30.13 in 10.0 mi West 13.8 mph - N/A   Clear
1:15 PM 62.6 °F - 44.6 °F 52% 30.12 in 10.0 mi WNW 10.4 mph - N/A   Clear
1:35 PM 64.4 °F - 44.6 °F 49% 30.11 in 10.0 mi West 12.7 mph - N/A   Clear
1:55 PM 62.6 °F - 41.0 °F 45% 30.11 in 10.0 mi WNW 12.7 mph - N/A   Clear
2:15 PM 64.4 °F - 41.0 °F 42% 30.11 in 10.0 mi WNW 12.7 mph 18.4 mph N/A   Clear
2:35 PM 64.4 °F - 37.4 °F 37% 30.10 in 10.0 mi West 12.7 mph - N/A   Clear
2:55 PM 62.6 °F - 37.4 °F 39% 30.10 in 10.0 mi West 11.5 mph - N/A   Clear
3:15 PM 64.4 °F - 35.6 °F 34% 30.10 in 10.0 mi WNW 11.5 mph 16.1 mph N/A   Clear
3:35 PM 64.4 °F - 35.6 °F 34% 30.11 in 10.0 mi West 11.5 mph - N/A   Clear
3:55 PM 64.4 °F - 37.4 °F 37% 30.11 in 10.0 mi WNW 11.5 mph 16.1 mph N/A   Clear
4:15 PM 62.6 °F - 35.6 °F 37% 30.11 in 10.0 mi WNW 9.2 mph 17.3 mph N/A   Clear
4:35 PM 62.6 °F - 35.6 °F 37% 30.11 in 10.0 mi West 10.4 mph - N/A   Clear
4:55 PM 62.6 °F - 37.4 °F 39% 30.11 in 10.0 mi WNW 8.1 mph - N/A   Clear
5:15 PM 60.8 °F - 35.6 °F 39% 30.11 in 10.0 mi WNW 5.8 mph - N/A   Clear
5:35 PM 60.8 °F - 35.6 °F 39% 30.10 in 10.0 mi WNW 4.6 mph - N/A   Clear
5:55 PM 59.0 °F - 37.4 °F 45% 30.10 in 10.0 mi WNW 4.6 mph - N/A   Clear
6:15 PM 53.6 °F - 37.4 °F 54% 30.11 in 10.0 mi West 3.5 mph - N/A   Clear
6:35 PM 51.8 °F - 41.0 °F 67% 30.11 in 10.0 mi WNW 3.5 mph - N/A   Clear
6:55 PM 53.6 °F - 39.2 °F 58% 30.12 in 10.0 mi WNW 3.5 mph - N/A   Clear
7:15 PM 51.8 °F - 41.0 °F 67% 30.12 in 10.0 mi Calm Calm - N/A   Clear
7:55 PM 44.6 °F - 37.4 °F 76% 30.12 in 10.0 mi Calm Calm - N/A   Clear
8:15 PM 44.6 °F - 39.2 °F 81% 30.13 in 10.0 mi Calm Calm - N/A   Clear
8:35 PM 44.6 °F - 39.2 °F 81% 30.13 in 10.0 mi Calm Calm - N/A   Clear
8:55 PM 42.8 °F - 37.4 °F 81% 30.13 in 10.0 mi Calm Calm - N/A   Clear
9:15 PM 42.8 °F - 39.2 °F 87% 30.14 in 10.0 mi Calm Calm - N/A   Clear
9:35 PM 42.8 °F 41.1 °F 39.2 °F 87% 30.14 in 10.0 mi WSW 3.5 mph - N/A   Clear
9:55 PM 41.0 °F - 37.4 °F 87% 30.15 in 10.0 mi Calm Calm - N/A   Clear
10:15 PM 42.8 °F - 39.2 °F 87% 30.15 in 10.0 mi Calm Calm - N/A   Clear
10:35 PM 42.8 °F - 37.4 °F 81% 30.15 in 10.0 mi Calm Calm - N/A   Clear
10:55 PM 41.0 °F - 37.4 °F 87% 30.15 in 10.0 mi Calm Calm - N/A   Clear
11:15 PM 41.0 °F - 37.4 °F 87% 30.15 in 10.0 mi Calm Calm - N/A   Clear
11:35 PM 41.0 °F - 37.4 °F 87% 30.15 in 10.0 mi Calm Calm - N/A   Clear
11:55 PM 41.0 °F - 37.4 °F 87% 30.15 in 10.0 mi Calm Calm - N/A   Clear